Weather History for Eagle, AK

Change the Weather History Date:

Friday, April 26, 2013

  Actual Average (PABN) Record (PABN)
Temperature  
Mean Temperature 11 °F -  
Max Temperature 30 °F 38 °F 60 °F (2003)
Min Temperature -8 °F 29 °F 0 °F (2013)
Degree Days  
Heating Degree Days 54    
Moisture  
Dew Point -4 °F    
Average Humidity 45    
Maximum Humidity 75    
Minimum Humidity 27    
Precipitation  
Precipitation 0.00 in - - ()
Sea Level Pressure  
Sea Level Pressure 29.76 in    
Wind  
Wind Speed 2 mph (East)    
Max Wind Speed 9 mph    
Max Gust Speed -    
Visibility 10 miles    
Events      
Averages and records for this station are not official NWS values.
T = Trace of Precipitation, MM = Missing Value Source: NWS Daily Summary

Daily Weather History Graph

Daily Weather History Graph

Search for Another Location

Airport:

Trip Planner

Search our weather history database for the weather conditions in past years. The results will help you decide how hot, cold, wet, or windy it might be!

Date:

Astronomy

Apr. 26, 2013 Rise Set
Actual Time 5:08 AM AKDT 9:38 PM AKDT
Civil Twilight 4:01 AM AKDT 10:46 PM AKDT
Nautical Twilight 1:54 AM AKDT 12:49 AM AKDT
Astronomical Twilight Sun does not rise Sun does not rise
Moon 11:52 PM AKDT (4/26) 5:19 AM AKDT (4/26)
Length of Visible Light 18h 45m
Length of Day
16h 30m
Full, 99% of the Moon is Illuminated
Apr 26
Full
May 2
Last Quarter
May 9
New
May 17
First Quarter
May 24
Full

Hourly Weather History & Observations

Time (AKDT) Temp. Windchill Dew Point Humidity Pressure Visibility Wind Dir Wind Speed Gust Speed Precip Events Conditions
12:53 AM 3.0 °F - -7.1 °F 63% 30.00 in 10.0 mi Calm Calm - N/A   Clear
1:53 AM 3.0 °F -6.4 °F -7.1 °F 63% 29.99 in 10.0 mi WSW 4.6 mph - N/A   Clear
2:53 AM -2.9 °F - -9.9 °F 72% 29.98 in 10.0 mi Calm Calm - N/A   Clear
3:53 AM -5.1 °F - -11.9 °F 72% 29.96 in 10.0 mi Calm Calm - N/A   Clear
4:53 AM -7.1 °F - -13.0 °F 75% 29.94 in 10.0 mi Calm Calm - N/A   Clear
5:53 AM -8.0 °F - -14.1 °F 75% 29.91 in 10.0 mi Calm Calm - N/A   Clear
6:53 AM 1.9 °F - -8.0 °F 63% 29.88 in 10.0 mi Calm Calm - N/A   Clear
7:53 AM 7.0 °F - -7.1 °F 53% 29.86 in 10.0 mi Calm Calm - N/A   Clear
8:53 AM 12.9 °F - -5.1 °F 45% 29.83 in 10.0 mi Calm Calm - N/A   Clear
9:53 AM 18.0 °F 12.7 °F -2.9 °F 40% 29.79 in 10.0 mi NE 3.5 mph - N/A   Clear
10:53 AM 21.0 °F - -2.0 °F 36% 29.76 in 10.0 mi Calm Calm - N/A   Clear
11:53 AM 25.0 °F 18.1 °F -2.0 °F 31% 29.73 in 10.0 mi ENE 5.8 mph - N/A   Clear
12:53 PM 27.0 °F - 1.0 °F 33% 29.70 in 10.0 mi Calm Calm - N/A   Clear
1:53 PM 27.0 °F 20.5 °F 1.0 °F 33% 29.67 in 10.0 mi WNW 5.8 mph - N/A   Clear
2:53 PM 28.9 °F 22.8 °F 1.0 °F 30% 29.65 in 10.0 mi Variable 5.8 mph - N/A   Clear
3:53 PM 30.0 °F 26.5 °F -0.0 °F 28% 29.63 in 10.0 mi Variable 3.5 mph - N/A   Scattered Clouds
4:53 PM 30.9 °F 25.2 °F 1.9 °F 29% 29.62 in 10.0 mi Variable 5.8 mph - N/A   Mostly Cloudy
5:53 PM 28.9 °F 20.4 °F -0.0 °F 29% 29.61 in 10.0 mi North 9.2 mph - N/A   Clear
6:53 PM 28.9 °F 22.8 °F -0.0 °F 29% 29.60 in 10.0 mi East 5.8 mph - N/A   Clear
7:53 PM 27.0 °F 19.5 °F -2.9 °F 27% 29.60 in 10.0 mi ESE 6.9 mph - N/A   Mostly Cloudy
8:53 PM 25.0 °F 20.7 °F -2.0 °F 31% 29.60 in 10.0 mi Variable 3.5 mph - N/A   Overcast
9:53 PM 23.0 °F 17.0 °F -2.9 °F 32% 29.62 in 10.0 mi ESE 4.6 mph - N/A   Scattered Clouds
10:53 PM 18.0 °F 11.1 °F -2.9 °F 40% 29.63 in 10.0 mi SSE 4.6 mph - N/A   Clear
11:53 PM 14.0 °F - -2.0 °F 49% 29.65 in 10.0 mi Calm Calm - N/A   Mostly Cloudy